Home   Weather   Paris 10   Past weeks
Flag for France

Past Weather in Paris 10, Paris, France — Yesterday and Last 2 Weeks

Now
55 °F

Passing clouds.


Feels Like: 53 °F
Forecast: 60 / 54 °F
Wind: 10 mph from Southwest

Location: Villacoublay

Current Time: Oct 18, 2019 at 4:18:52 am

Latest Report: Oct 18, 2019 at 3:30 am


Visibility: N/A

Pressure: 29.77 "Hg

Humidity: 88%

Dew Point: 52 °F

Location of Paris 10Location

Past Weather in Paris 10 — Graph

°F

Paris 10 Temperature Yesterday

Maximum temperature yesterday: 61 °F (at 4:30 pm)
Minimum temperature yesterday: 52 °F (at 5:00 am)
Average temperature yesterday: 56 °F

High & Low Weather Summary for the Past Weeks

 TemperatureHumidityPressure
High75 °F (Oct 13, 1:30 pm)100% (Oct 4, 3:00 am)30.18 "Hg (Oct 4, 3:00 am)
Low37 °F (Oct 3, 4:30 am)50% (Oct 13, 2:00 pm)29.65 "Hg (Oct 14, 4:30 pm)
Average57 °F84%29.90 "Hg
* Reported Oct 3 3:00 am — Oct 18 3:00 am, Paris 10. Weather by CustomWeather, © 2019

Note: Actual official high and low records may vary slightly from our data, if they occured in-between our weather recording intervals... More about our weather records

Advertising

Paris 10 Weather History for the Previous 24 Hours

Scroll right to see more
 ConditionsComfort  
Time TempWeatherWind HumidityBarometerVisibility
3:00 am
Fri, Oct 18
55 °FPartly cloudy.12 mph88%29.77 "HgN/A
2:30 am55 °FMostly cloudy.13 mph94%29.77 "HgN/A
2:00 am57 °FOvercast.9 mph88%29.77 "HgN/A
1:30 am57 °FMostly cloudy.10 mph88%29.77 "HgN/A
1:00 am57 °FMostly cloudy.10 mph88%29.80 "HgN/A
12:30 am57 °FPassing clouds.8 mph88%29.80 "HgN/A
12:00 am57 °FOvercast.8 mph94%29.80 "HgN/A
11:30 pm
Thu, Oct 17
57 °FOvercast.9 mph94%29.80 "HgN/A
11:00 pm57 °FMostly cloudy.10 mph94%29.80 "HgN/A
10:30 pm57 °FLow clouds.13 mph94%29.80 "HgN/A
10:00 pm57 °FMostly cloudy.12 mph94%29.80 "HgN/A
9:30 pm57 °FMostly cloudy.10 mph94%29.83 "HgN/A
9:00 pm57 °FPartly cloudy.9 mph94%29.83 "HgN/A
8:30 pm57 °FPassing clouds.10 mph94%29.83 "HgN/A
8:00 pm57 °FPassing clouds.9 mph94%29.83 "HgN/A
7:30 pm57 °FPassing clouds.8 mph88%29.83 "HgN/A
7:00 pm59 °FPassing clouds.8 mph82%29.83 "HgN/A
6:30 pm59 °FPartly sunny.6 mph82%29.83 "HgN/A
6:00 pm59 °FPartly sunny.10 mph77%29.83 "HgN/A
4:30 pm61 °FPartly sunny.8 mph77%29.83 "HgN/A
4:00 pm59 °FPartly sunny.10 mph88%29.83 "HgN/A
3:30 pm59 °FPartly sunny.8 mph88%29.83 "HgN/A
3:00 pm59 °FPartly sunny.7 mph88%29.83 "HgN/A
2:30 pm57 °FLow clouds.8 mph88%29.83 "HgN/A
2:00 pm57 °FMostly cloudy.6 mph88%29.83 "HgN/A
1:30 pm57 °FBroken clouds.7 mph88%29.83 "HgN/A
1:00 pm55 °FPartly sunny.12 mph88%29.83 "HgN/A
12:30 pm54 °FOvercast.7 mph94%29.86 "HgN/A
12:00 pm54 °FLow clouds.6 mph94%29.86 "HgN/A
11:30 am54 °FMostly cloudy.7 mph94%29.86 "HgN/A
11:00 am54 °FLight rain. Broken clouds.6 mph94%29.86 "HgN/A
10:30 am54 °FMostly cloudy.5 mph94%29.86 "HgN/A
10:00 am54 °FMostly cloudy.6 mph100%29.86 "HgN/A
9:30 am54 °FMostly cloudy.3 mph100%29.86 "HgN/A
9:00 am54 °FCloudy.6 mph94%29.86 "HgN/A
8:30 am54 °FMostly cloudy.5 mph94%29.83 "HgN/A
8:00 am54 °FMostly cloudy.7 mph94%29.86 "HgN/A
7:30 am54 °FPartly cloudy.5 mph94%29.83 "HgN/A
7:00 am54 °FPassing clouds.5 mph94%29.83 "HgN/A
6:30 am54 °FMostly cloudy.3 mph94%29.83 "HgN/A
6:00 am52 °FMostly cloudy.5 mph100%29.86 "HgN/A
5:30 am52 °FMostly cloudy.3 mph100%29.86 "HgN/A
5:00 am52 °FPassing clouds.3 mph100%29.83 "HgN/A
4:30 am54 °FPassing clouds.3 mph94%29.83 "HgN/A
4:00 am54 °FLow clouds.5 mph100%29.86 "HgN/A
Weather by CustomWeather, © 2019

See weather overview